UAE921 OMDB-HECA

Flight info

Callsign UAE921
Flight time N/A
Altitude 36000
Route SENPA N571 ALPOB L768 VATIM L550 NOVPA N697 MENLI L677 CVO
Aircraft B77W/H-SDE1E2E3FGHIJ2J3J4J5M1RWXY/LB1D1

Departure

Time 2026-04-30 07:47
Airport Dubai International Airport (OMDB)

Arrival

Time N/A
Airport Cairo International Airport (HECA)
Time Latitude Longitude Altitude Speed Heading
2026-04-30 07:22 25.25237 55.35644 30 ft 0 kts 211°
2026-04-30 07:37 25.25257 55.35657 32 ft 4 kts 211°
2026-04-30 07:37 25.25280 55.35672 31 ft 4 kts 211°
2026-04-30 07:38 25.25299 55.35685 32 ft 4 kts 216°
2026-04-30 07:38 25.25315 55.35705 32 ft 4 kts 259°
2026-04-30 07:38 25.25313 55.35733 32 ft 4 kts 297°
2026-04-30 07:38 25.25300 55.35757 32 ft 4 kts 302°
2026-04-30 07:39 25.25290 55.35775 32 ft 0 kts 302°
2026-04-30 07:41 25.25301 55.35755 26 ft 11 kts 302°
2026-04-30 07:42 25.25371 55.35694 27 ft 14 kts 359°
2026-04-30 07:42 25.25491 55.35757 30 ft 24 kts 29°
2026-04-30 07:42 25.25633 55.35849 29 ft 24 kts 31°
2026-04-30 07:42 25.25744 55.35957 27 ft 19 kts 83°
2026-04-30 07:43 25.25689 55.36089 27 ft 19 kts 121°
2026-04-30 07:43 25.25610 55.36235 27 ft 24 kts 121°
2026-04-30 07:43 25.25520 55.36390 27 ft 24 kts 122°
2026-04-30 07:43 25.25431 55.36547 27 ft 24 kts 122°
2026-04-30 07:44 25.25343 55.36704 26 ft 24 kts 121°
2026-04-30 07:44 25.25256 55.36860 27 ft 24 kts 122°
2026-04-30 07:44 25.25168 55.37017 27 ft 24 kts 122°
2026-04-30 07:44 25.25080 55.37174 28 ft 24 kts 122°
2026-04-30 07:45 25.24992 55.37330 28 ft 24 kts 122°
2026-04-30 07:45 25.24904 55.37486 28 ft 24 kts 122°
2026-04-30 07:45 25.24815 55.37643 28 ft 24 kts 122°
2026-04-30 07:45 25.24731 55.37792 27 ft 16 kts 122°
2026-04-30 07:46 25.24720 55.37864 27 ft 10 kts 63°
2026-04-30 07:46 25.24771 55.37912 28 ft 10 kts 31°
2026-04-30 07:46 25.24834 55.37937 30 ft 10 kts 355°
2026-04-30 07:46 25.24882 55.37888 30 ft 12 kts 302°
2026-04-30 07:47 25.24991 55.37695 30 ft 56 kts 301°
2026-04-30 07:47 25.25325 55.37090 30 ft 126 kts 301°
2026-04-30 07:47 25.25879 55.36081 85 ft 174 kts 301°
2026-04-30 07:47 25.26494 55.34942 733 ft 174 kts 301°
2026-04-30 07:48 25.26924 55.34153 1131 ft 179 kts 302°
2026-04-30 07:48 25.27565 55.32974 1887 ft 178 kts 304°
2026-04-30 07:48 25.28216 55.31775 2450 ft 190 kts 305°
2026-04-30 07:48 25.28929 55.30479 2956 ft 202 kts 304°
2026-04-30 07:49 25.29628 55.29098 3420 ft 221 kts 294°
2026-04-30 07:49 25.29888 55.27300 3640 ft 250 kts 276°
2026-04-30 07:49 25.29938 55.25340 4295 ft 259 kts 275°
2026-04-30 07:49 25.30017 55.23329 5013 ft 265 kts 277°
2026-04-30 07:50 25.30177 55.21282 5777 ft 269 kts 277°
2026-04-30 07:50 25.30352 55.19204 6555 ft 274 kts 276°
2026-04-30 07:50 25.30425 55.17107 7333 ft 274 kts 268°
2026-04-30 07:50 25.30276 55.15013 8199 ft 272 kts 264°
2026-04-30 07:51 25.30082 55.12937 9077 ft 271 kts 263°
2026-04-30 07:51 25.29892 55.10864 9910 ft 271 kts 263°
2026-04-30 07:51 25.29709 55.08773 10542 ft 280 kts 263°
2026-04-30 07:51 25.29519 55.06526 10737 ft 307 kts 263°
2026-04-30 07:52 25.29321 55.04081 10937 ft 332 kts 264°
2026-04-30 07:52 25.29118 55.01484 11447 ft 345 kts 264°
2026-04-30 07:52 25.28911 54.98811 12210 ft 352 kts 264°
2026-04-30 07:52 25.28702 54.96103 13126 ft 355 kts 264°
2026-04-30 07:53 25.28521 54.93365 14013 ft 359 kts 266°
2026-04-30 07:53 25.28444 54.90593 14826 ft 363 kts 267°
2026-04-30 07:53 25.28385 54.87792 15650 ft 367 kts 267°
2026-04-30 07:53 25.28314 54.84963 16492 ft 370 kts 266°
2026-04-30 07:54 25.28235 54.82107 17336 ft 374 kts 266°
2026-04-30 07:54 25.28150 54.79215 18156 ft 379 kts 266°
2026-04-30 07:54 25.28063 54.76292 18872 ft 382 kts 266°
2026-04-30 07:54 25.28218 54.73355 19608 ft 386 kts 279°
2026-04-30 07:55 25.28955 54.70487 20190 ft 392 kts 283°
2026-04-30 07:55 25.29745 54.67580 20858 ft 396 kts 283°
2026-04-30 07:55 25.30514 54.64651 21627 ft 398 kts 282°
2026-04-30 07:55 25.31269 54.61702 22401 ft 399 kts 281°
2026-04-30 07:56 25.32014 54.58742 23145 ft 401 kts 281°
2026-04-30 07:56 25.32761 54.55759 23753 ft 404 kts 281°
2026-04-30 07:56 25.33517 54.52750 24259 ft 408 kts 281°
2026-04-30 07:56 25.34321 54.49721 24748 ft 413 kts 282°
2026-04-30 07:57 25.35155 54.46667 25211 ft 418 kts 282°
2026-04-30 07:57 25.36004 54.43577 25686 ft 422 kts 282°
2026-04-30 07:57 25.36844 54.40505 26162 ft 425 kts 282°
2026-04-30 07:57 25.37697 54.37367 26653 ft 428 kts 282°
2026-04-30 07:58 25.38564 54.34163 27145 ft 430 kts 282°
2026-04-30 07:58 25.39423 54.30984 27605 ft 433 kts 282°
2026-04-30 07:58 25.40285 54.27780 28035 ft 436 kts 282°
2026-04-30 07:58 25.41114 54.24537 28454 ft 439 kts 281°
2026-04-30 07:59 25.41904 54.21310 28863 ft 442 kts 280°
2026-04-30 07:59 25.42703 54.18016 29291 ft 444 kts 280°
2026-04-30 07:59 25.43511 54.14709 29704 ft 447 kts 280°
2026-04-30 08:00 25.45151 54.08054 30427 ft 450 kts 280°
2026-04-30 08:00 25.45968 54.04711 30741 ft 451 kts 280°
2026-04-30 08:00 25.46785 54.01355 31019 ft 453 kts 280°
2026-04-30 08:00 25.47605 53.97977 31275 ft 455 kts 280°
2026-04-30 08:01 25.48427 53.94589 31560 ft 456 kts 280°
2026-04-30 08:01 25.49251 53.91199 31923 ft 455 kts 280°
2026-04-30 08:01 25.50071 53.87821 32314 ft 454 kts 280°
2026-04-30 08:01 25.50889 53.84449 32697 ft 453 kts 280°
2026-04-30 08:02 25.52516 53.77726 33421 ft 452 kts 280°
2026-04-30 08:02 25.53325 53.74372 33779 ft 451 kts 280°
2026-04-30 08:03 25.54920 53.67660 34375 ft 450 kts 279°
2026-04-30 08:03 25.56494 53.60994 35145 ft 445 kts 279°
2026-04-30 08:03 25.57275 53.57680 35433 ft 445 kts 279°
2026-04-30 08:04 25.58057 53.54361 35701 ft 445 kts 279°
2026-04-30 08:04 25.59630 53.47675 35828 ft 450 kts 279°
2026-04-30 08:05 25.61202 53.41000 35853 ft 445 kts 279°
2026-04-30 08:05 25.62763 53.34398 35864 ft 442 kts 279°
2026-04-30 08:06 25.64318 53.27819 35868 ft 441 kts 279°
2026-04-30 08:06 25.65859 53.21282 35868 ft 441 kts 279°
2026-04-30 08:07 25.67409 53.14690 35881 ft 442 kts 279°
2026-04-30 08:07 25.68959 53.08084 35872 ft 443 kts 279°
2026-04-30 08:08 25.70724 53.01512 35877 ft 448 kts 285°
2026-04-30 08:08 25.73408 52.95216 35878 ft 454 kts 292°
2026-04-30 08:09 25.76382 52.89028 35875 ft 455 kts 292°
2026-04-30 08:09 25.79335 52.82826 35874 ft 455 kts 291°
2026-04-30 08:10 25.82270 52.76610 35874 ft 454 kts 291°
2026-04-30 08:10 25.85196 52.70394 35877 ft 454 kts 291°
2026-04-30 08:11 25.88123 52.64173 35882 ft 454 kts 291°
2026-04-30 08:11 25.91021 52.57941 35876 ft 453 kts 290°
2026-04-30 08:12 25.93795 52.51658 35883 ft 453 kts 290°
2026-04-30 08:12 25.96566 52.45369 35884 ft 453 kts 290°
2026-04-30 08:13 25.99349 52.39089 35880 ft 453 kts 290°
2026-04-30 08:13 26.02144 52.32814 35879 ft 453 kts 290°
2026-04-30 08:14 26.04936 52.26541 35877 ft 452 kts 290°
2026-04-30 08:14 26.07720 52.20274 35880 ft 452 kts 290°
2026-04-30 08:15 26.10499 52.14005 35890 ft 452 kts 290°
2026-04-30 08:15 26.13256 52.07776 35880 ft 451 kts 290°
2026-04-30 08:16 26.16042 52.01473 35876 ft 450 kts 290°
2026-04-30 08:16 26.18831 51.95230 35882 ft 450 kts 290°
2026-04-30 08:17 26.21610 51.89040 35884 ft 449 kts 290°
2026-04-30 08:17 26.24365 51.82794 35901 ft 449 kts 290°
2026-04-30 08:18 26.27135 51.76556 35886 ft 449 kts 290°
2026-04-30 08:18 26.29913 51.70340 35889 ft 448 kts 290°
2026-04-30 08:19 26.32680 51.64128 35883 ft 447 kts 290°
2026-04-30 08:19 26.35439 51.57923 35890 ft 446 kts 290°
2026-04-30 08:20 26.38113 51.51695 35918 ft 443 kts 285°
2026-04-30 08:20 26.40159 51.45266 35900 ft 439 kts 283°
2026-04-30 08:21 26.42182 51.38837 35892 ft 439 kts 283°
2026-04-30 08:21 26.44256 51.32421 35896 ft 440 kts 284°
2026-04-30 08:22 26.46358 51.26013 35892 ft 439 kts 284°
2026-04-30 08:22 26.48410 51.19592 35894 ft 439 kts 283°
2026-04-30 08:23 26.50444 51.13164 35914 ft 439 kts 283°
2026-04-30 08:23 26.52480 51.06738 35902 ft 439 kts 283°
2026-04-30 08:24 26.54514 51.00317 35906 ft 438 kts 283°
2026-04-30 08:24 26.56541 50.93908 35904 ft 437 kts 283°
2026-04-30 08:25 26.58544 50.87502 35894 ft 436 kts 282°
2026-04-30 08:25 26.60505 50.81086 35907 ft 436 kts 282°
2026-04-30 08:26 26.62465 50.74674 35912 ft 436 kts 282°
2026-04-30 08:26 26.64423 50.68272 35907 ft 435 kts 282°
2026-04-30 08:27 26.66323 50.61913 35900 ft 434 kts 282°
2026-04-30 08:27 26.68218 50.55517 35916 ft 433 kts 282°
2026-04-30 08:28 26.70116 50.49125 35913 ft 433 kts 282°
2026-04-30 08:28 26.71866 50.42703 35910 ft 431 kts 279°
2026-04-30 08:29 26.73492 50.36247 35930 ft 431 kts 279°
2026-04-30 08:29 26.75152 50.29798 35922 ft 431 kts 280°
2026-04-30 08:30 26.76900 50.23368 35925 ft 433 kts 282°
2026-04-30 08:30 26.78844 50.16989 35927 ft 433 kts 282°
2026-04-30 08:31 26.80772 50.10612 35927 ft 432 kts 282°
2026-04-30 08:31 26.82667 50.04232 35926 ft 432 kts 282°
2026-04-30 08:32 26.84556 49.97855 35935 ft 431 kts 282°
2026-04-30 08:32 26.86442 49.91482 35934 ft 431 kts 282°
2026-04-30 08:33 26.88321 49.85126 35925 ft 430 kts 281°
2026-04-30 08:33 26.90193 49.78779 35928 ft 429 kts 281°
2026-04-30 08:34 26.92046 49.72481 35914 ft 428 kts 281°
2026-04-30 08:34 26.93906 49.66148 35931 ft 428 kts 281°
2026-04-30 08:35 26.95762 49.59817 35931 ft 428 kts 281°
2026-04-30 08:35 26.97616 49.53481 35921 ft 428 kts 281°
2026-04-30 08:36 26.99467 49.47149 35918 ft 427 kts 281°
2026-04-30 08:36 27.01101 49.41912 35930 ft 431 kts 285°
2026-04-30 08:37 27.03835 49.35863 35946 ft 438 kts 291°
2026-04-30 08:37 27.06857 49.29928 35923 ft 438 kts 291°
2026-04-30 08:38 27.09855 49.23984 35932 ft 438 kts 291°
2026-04-30 08:38 27.12838 49.18035 35931 ft 438 kts 291°
2026-04-30 08:39 27.15819 49.12077 35934 ft 437 kts 291°
2026-04-30 08:39 27.18797 49.06120 35941 ft 437 kts 291°
2026-04-30 08:40 27.21775 49.00155 35945 ft 437 kts 291°
2026-04-30 08:40 27.24754 48.94197 35940 ft 437 kts 291°
2026-04-30 08:41 27.27731 48.88246 35939 ft 436 kts 291°
2026-04-30 08:41 27.30699 48.82299 35943 ft 436 kts 291°
2026-04-30 08:42 27.33662 48.76354 35948 ft 436 kts 291°
2026-04-30 08:42 27.36620 48.70410 35950 ft 435 kts 291°
2026-04-30 08:43 27.39571 48.64469 35945 ft 435 kts 291°
2026-04-30 08:43 27.42516 48.58536 35950 ft 434 kts 291°
2026-04-30 08:44 27.45454 48.52606 35984 ft 434 kts 291°
2026-04-30 08:44 27.48391 48.46670 35961 ft 434 kts 290°
2026-04-30 08:45 27.51323 48.40736 35953 ft 433 kts 291°
2026-04-30 08:45 27.54250 48.34802 35954 ft 433 kts 291°
2026-04-30 08:46 27.57172 48.28874 35949 ft 433 kts 290°
2026-04-30 08:46 27.60067 48.22982 35958 ft 433 kts 290°
2026-04-30 08:47 27.62975 48.17046 35962 ft 432 kts 290°
2026-04-30 08:47 27.65876 48.11116 35958 ft 432 kts 290°
2026-04-30 08:48 27.68776 48.05183 35957 ft 431 kts 290°
2026-04-30 08:48 27.71671 47.99254 35984 ft 431 kts 290°
2026-04-30 08:49 27.74567 47.93319 35967 ft 431 kts 290°
2026-04-30 08:49 27.77456 47.87389 35973 ft 431 kts 290°
2026-04-30 08:50 27.80338 47.81464 35970 ft 430 kts 290°
2026-04-30 08:50 27.83212 47.75539 35962 ft 429 kts 289°
2026-04-30 08:51 27.85549 47.69425 35974 ft 420 kts 282°
2026-04-30 08:51 27.87448 47.63187 35971 ft 420 kts 282°
2026-04-30 08:52 27.89367 47.56949 35978 ft 420 kts 282°
2026-04-30 08:52 27.91279 47.50751 35976 ft 420 kts 282°
2026-04-30 08:53 27.93204 47.44509 35980 ft 420 kts 282°
2026-04-30 08:53 27.95126 47.38262 35979 ft 421 kts 282°
2026-04-30 08:54 27.97047 47.32010 35976 ft 420 kts 282°
2026-04-30 08:54 27.98962 47.25763 35980 ft 420 kts 282°
2026-04-30 08:55 28.00871 47.19524 35984 ft 420 kts 282°
2026-04-30 08:55 28.02776 47.13283 35991 ft 419 kts 282°
2026-04-30 08:56 28.04678 47.07044 35992 ft 419 kts 282°
2026-04-30 08:56 28.06576 47.00808 35986 ft 419 kts 282°
2026-04-30 08:57 28.08468 46.94576 35984 ft 418 kts 282°
2026-04-30 08:57 28.10356 46.88351 35982 ft 417 kts 282°
2026-04-30 08:58 28.12359 46.82167 35983 ft 419 kts 283°
2026-04-30 08:58 28.14446 46.76005 36001 ft 419 kts 283°
2026-04-30 08:59 28.16520 46.69838 35993 ft 419 kts 283°
2026-04-30 08:59 28.18563 46.63707 35992 ft 418 kts 283°
2026-04-30 09:00 28.20611 46.57534 35992 ft 418 kts 283°
2026-04-30 09:00 28.22655 46.51358 35995 ft 418 kts 283°
2026-04-30 09:01 28.24696 46.45184 36003 ft 418 kts 283°
2026-04-30 09:01 28.26733 46.39010 36006 ft 418 kts 283°
2026-04-30 09:02 28.29784 46.29742 36014 ft 418 kts 283°
2026-04-30 09:02 28.31815 46.23560 36021 ft 418 kts 283°
2026-04-30 09:03 28.33842 46.17377 36026 ft 418 kts 283°
2026-04-30 09:03 28.35870 46.11189 36023 ft 418 kts 284°
2026-04-30 09:04 28.38088 46.05062 36021 ft 420 kts 285°
2026-04-30 09:04 28.40393 45.99009 36018 ft 420 kts 285°
2026-04-30 09:05 28.42693 45.92912 36016 ft 420 kts 285°
2026-04-30 09:05 28.44969 45.86807 36003 ft 419 kts 285°
2026-04-30 09:06 28.47233 45.80701 35997 ft 419 kts 285°
2026-04-30 09:06 28.49491 45.74594 36007 ft 419 kts 285°
2026-04-30 09:07 28.51745 45.68491 35998 ft 419 kts 285°
2026-04-30 09:07 28.53997 45.62385 36010 ft 419 kts 285°
2026-04-30 09:08 28.56248 45.56272 36004 ft 419 kts 285°
2026-04-30 09:08 28.58494 45.50161 36005 ft 419 kts 285°
2026-04-30 09:09 28.60738 45.44049 36006 ft 419 kts 285°
2026-04-30 09:09 28.62978 45.37935 36027 ft 418 kts 285°
2026-04-30 09:10 28.65216 45.31815 36009 ft 419 kts 285°
2026-04-30 09:10 28.67451 45.25695 36009 ft 419 kts 285°
2026-04-30 09:11 28.69683 45.19575 36009 ft 418 kts 285°
2026-04-30 09:11 28.71909 45.13458 36005 ft 418 kts 285°
2026-04-30 09:12 28.74133 45.07337 36013 ft 418 kts 285°
2026-04-30 09:12 28.76354 45.01213 36011 ft 418 kts 285°
2026-04-30 09:13 28.78575 44.95081 36019 ft 418 kts 285°
2026-04-30 09:13 28.80792 44.88948 36014 ft 418 kts 285°
2026-04-30 09:14 28.83007 44.82813 36010 ft 418 kts 285°
2026-04-30 09:14 28.85047 44.76674 36017 ft 413 kts 280°
2026-04-30 09:15 28.86306 44.70326 36016 ft 409 kts 274°
2026-04-30 09:15 28.86901 44.63913 36017 ft 406 kts 271°
2026-04-30 09:16 28.87393 44.57483 36022 ft 408 kts 271°
2026-04-30 09:16 28.87892 44.51032 36015 ft 409 kts 271°
2026-04-30 09:17 28.88400 44.44569 36006 ft 409 kts 271°
2026-04-30 09:17 28.88910 44.38102 36025 ft 410 kts 271°
2026-04-30 09:18 28.89419 44.31626 36017 ft 410 kts 271°
2026-04-30 09:18 28.89925 44.25147 36017 ft 410 kts 271°
2026-04-30 09:19 28.90428 44.18666 36020 ft 410 kts 271°
2026-04-30 09:19 28.90927 44.12186 36019 ft 410 kts 271°
2026-04-30 09:20 28.91423 44.05708 36016 ft 410 kts 271°
2026-04-30 09:20 28.91916 43.99234 36027 ft 410 kts 271°
2026-04-30 09:21 28.92405 43.92754 36021 ft 410 kts 271°
2026-04-30 09:21 28.92892 43.86274 35983 ft 409 kts 271°
2026-04-30 09:22 28.93375 43.79810 36022 ft 409 kts 271°
2026-04-30 09:22 28.93854 43.73339 36019 ft 409 kts 271°
2026-04-30 09:23 28.94331 43.66869 36018 ft 409 kts 271°
2026-04-30 09:23 28.94805 43.60393 36028 ft 410 kts 271°
2026-04-30 09:24 28.95274 43.53950 36022 ft 410 kts 271°
2026-04-30 09:24 28.95740 43.47461 36020 ft 410 kts 271°
2026-04-30 09:25 28.96200 43.40968 36036 ft 410 kts 271°
2026-04-30 09:25 28.96656 43.34473 36020 ft 410 kts 271°
2026-04-30 09:26 28.97111 43.27979 36016 ft 410 kts 271°
2026-04-30 09:26 28.97490 43.22536 36013 ft 410 kts 271°
2026-04-30 09:27 28.97938 43.16045 36026 ft 410 kts 271°
2026-04-30 09:27 28.98383 43.09558 36034 ft 410 kts 271°
2026-04-30 09:28 28.98825 43.03067 36033 ft 410 kts 271°
2026-04-30 09:28 28.99265 42.96568 36042 ft 411 kts 271°
2026-04-30 09:29 28.99702 42.90066 36026 ft 411 kts 271°
2026-04-30 09:29 29.00133 42.83603 36030 ft 411 kts 271°
2026-04-30 09:30 29.00564 42.77096 36046 ft 411 kts 271°
2026-04-30 09:30 29.00991 42.70593 36045 ft 411 kts 271°
2026-04-30 09:31 29.01415 42.64086 36051 ft 411 kts 271°
2026-04-30 09:31 29.01836 42.57577 36016 ft 411 kts 271°
2026-04-30 09:32 29.02255 42.51073 36046 ft 410 kts 271°
2026-04-30 09:32 29.02669 42.44570 36052 ft 410 kts 271°
2026-04-30 09:33 29.03080 42.38067 36063 ft 410 kts 271°
2026-04-30 09:33 29.03489 42.31564 36050 ft 411 kts 271°
2026-04-30 09:34 29.03895 42.25056 36065 ft 410 kts 271°
2026-04-30 09:34 29.04297 42.18552 36071 ft 410 kts 271°
2026-04-30 09:35 29.04698 42.12040 36063 ft 411 kts 271°
2026-04-30 09:35 29.05096 42.05524 36071 ft 411 kts 271°
2026-04-30 09:36 29.05493 41.99007 36065 ft 411 kts 271°
2026-04-30 09:36 29.05886 41.92484 36075 ft 412 kts 271°
2026-04-30 09:37 29.06279 41.85958 36065 ft 411 kts 271°
2026-04-30 09:37 29.06670 41.79438 36075 ft 411 kts 271°
2026-04-30 09:38 29.07057 41.72923 36072 ft 411 kts 271°
2026-04-30 09:38 29.07441 41.66407 36073 ft 411 kts 271°
2026-04-30 09:39 29.07822 41.59887 36075 ft 411 kts 271°
2026-04-30 09:39 29.08200 41.53361 36085 ft 412 kts 271°
2026-04-30 09:40 29.08576 41.46832 36082 ft 412 kts 271°
2026-04-30 09:40 29.08947 41.40292 36079 ft 412 kts 271°
2026-04-30 09:41 29.09311 41.33751 36096 ft 412 kts 271°
2026-04-30 09:41 29.09671 41.27205 36083 ft 413 kts 271°
2026-04-30 09:42 29.10028 41.20652 36059 ft 413 kts 271°
2026-04-30 09:42 29.10380 41.14154 36081 ft 412 kts 271°
2026-04-30 09:43 29.10731 41.07613 36086 ft 412 kts 271°
2026-04-30 09:43 29.11079 41.01068 36084 ft 412 kts 271°
2026-04-30 09:44 29.11425 40.94519 36094 ft 413 kts 271°
2026-04-30 09:44 29.11766 40.87970 36106 ft 413 kts 271°
2026-04-30 09:45 29.12105 40.81404 36095 ft 414 kts 271°
2026-04-30 09:45 29.12442 40.74838 36093 ft 414 kts 271°
2026-04-30 09:46 29.12775 40.68274 36092 ft 413 kts 271°
2026-04-30 09:46 29.13105 40.61712 36098 ft 413 kts 271°
2026-04-30 09:47 29.13247 40.55159 36094 ft 411 kts 266°
2026-04-30 09:47 29.13018 40.48625 36084 ft 411 kts 266°
2026-04-30 09:48 29.12793 40.42097 36088 ft 411 kts 266°
2026-04-30 09:48 29.12573 40.35565 36091 ft 411 kts 266°
2026-04-30 09:49 29.12353 40.29025 36095 ft 412 kts 266°
2026-04-30 09:49 29.12130 40.22480 36101 ft 412 kts 266°
2026-04-30 09:50 29.11903 40.15926 36088 ft 413 kts 266°
2026-04-30 09:50 29.11672 40.09368 36083 ft 413 kts 266°
2026-04-30 09:51 29.11439 40.02810 36102 ft 413 kts 266°
2026-04-30 09:51 29.11203 39.96244 36085 ft 413 kts 266°
2026-04-30 09:52 29.10967 39.89674 36080 ft 414 kts 267°
2026-04-30 09:52 29.10953 39.83095 36078 ft 414 kts 269°
2026-04-30 09:53 29.11026 39.76515 36081 ft 414 kts 269°
2026-04-30 09:53 29.11074 39.69933 36078 ft 414 kts 269°
2026-04-30 09:54 29.11099 39.63350 36076 ft 414 kts 269°
2026-04-30 09:54 29.11115 39.56763 36086 ft 414 kts 269°
2026-04-30 09:55 29.11127 39.50175 36074 ft 415 kts 269°
2026-04-30 09:55 29.11136 39.43584 36074 ft 415 kts 268°
2026-04-30 09:56 29.11141 39.36992 36067 ft 415 kts 268°
2026-04-30 09:56 29.11144 39.30399 36055 ft 414 kts 269°
2026-04-30 09:57 29.11144 39.23861 36066 ft 414 kts 268°
2026-04-30 09:57 29.11140 39.17279 36062 ft 414 kts 268°
2026-04-30 09:58 29.11134 39.10703 36067 ft 414 kts 268°
2026-04-30 09:58 29.11124 39.04122 36058 ft 414 kts 268°
2026-04-30 09:59 29.11094 38.90947 36057 ft 415 kts 268°
2026-04-30 10:00 29.11054 38.81045 36054 ft 415 kts 268°
2026-04-30 10:01 29.11007 38.71127 36050 ft 416 kts 268°
2026-04-30 10:02 29.10954 38.61209 36048 ft 416 kts 268°
2026-04-30 10:02 29.10915 38.54604 36051 ft 415 kts 268°
2026-04-30 10:03 29.10873 38.48002 36051 ft 415 kts 268°
2026-04-30 10:03 29.10827 38.41395 36051 ft 415 kts 268°
2026-04-30 10:04 29.10777 38.34794 36048 ft 415 kts 268°
2026-04-30 10:04 29.10718 38.28198 36050 ft 415 kts 268°
2026-04-30 10:05 29.10656 38.21603 36049 ft 415 kts 268°
2026-04-30 10:05 29.10591 38.15004 36056 ft 415 kts 268°
2026-04-30 10:06 29.10523 38.08394 36043 ft 416 kts 268°
2026-04-30 10:06 29.10453 38.01827 36010 ft 416 kts 268°
2026-04-30 10:07 29.10379 37.95225 36046 ft 415 kts 268°
2026-04-30 10:07 29.10302 37.88582 36037 ft 415 kts 268°
2026-04-30 10:08 29.10221 37.81989 36036 ft 415 kts 268°
2026-04-30 10:08 29.10138 37.75439 36037 ft 415 kts 268°
2026-04-30 10:09 29.10052 37.68849 36045 ft 415 kts 268°
2026-04-30 10:09 29.09962 37.62252 36040 ft 415 kts 268°
2026-04-30 10:10 29.09869 37.55645 36040 ft 416 kts 268°
2026-04-30 10:10 29.09778 37.49037 36041 ft 416 kts 268°
2026-04-30 10:11 29.09738 37.43497 36045 ft 416 kts 269°
2026-04-30 10:11 29.09703 37.36915 36042 ft 417 kts 269°
2026-04-30 10:12 29.09660 37.30288 36034 ft 416 kts 269°
2026-04-30 10:12 29.09610 37.23675 36040 ft 415 kts 269°
2026-04-30 10:13 29.09556 37.17072 36034 ft 415 kts 269°
2026-04-30 10:13 29.09499 37.10469 36030 ft 415 kts 269°
2026-04-30 10:14 29.09438 37.03864 36028 ft 415 kts 269°
2026-04-30 10:14 29.09342 36.93952 36024 ft 416 kts 269°
2026-04-30 10:15 29.09273 36.87332 36020 ft 417 kts 269°
2026-04-30 10:15 29.09201 36.80709 36013 ft 417 kts 269°
2026-04-30 10:16 29.09126 36.74084 36020 ft 417 kts 269°
2026-04-30 10:17 29.09007 36.64137 36013 ft 417 kts 269°
2026-04-30 10:17 29.08881 36.54202 36005 ft 416 kts 269°
2026-04-30 10:18 29.08793 36.47597 36012 ft 415 kts 268°
2026-04-30 10:19 29.08538 36.37698 35998 ft 415 kts 268°
2026-04-30 10:19 29.08345 36.31104 35998 ft 415 kts 268°
2026-04-30 10:20 29.08156 36.24509 36004 ft 415 kts 268°
2026-04-30 10:20 29.07874 36.14642 35999 ft 417 kts 268°
2026-04-30 10:21 29.07681 36.08010 35998 ft 418 kts 268°
2026-04-30 10:21 29.07485 36.01360 35998 ft 419 kts 268°
2026-04-30 10:22 29.07284 35.94700 35999 ft 419 kts 268°
2026-04-30 10:22 29.07081 35.88045 35989 ft 418 kts 268°
2026-04-30 10:23 29.06875 35.81420 35997 ft 416 kts 268°
2026-04-30 10:23 29.06667 35.74814 36017 ft 415 kts 268°
2026-04-30 10:24 29.06455 35.68225 36002 ft 415 kts 268°
2026-04-30 10:24 29.06241 35.61635 35998 ft 415 kts 268°
2026-04-30 10:25 29.06023 35.55044 36001 ft 415 kts 268°
2026-04-30 10:25 29.05803 35.48453 36007 ft 416 kts 268°
2026-04-30 10:26 29.05578 35.41882 35990 ft 417 kts 268°
2026-04-30 10:26 29.05350 35.35253 35984 ft 418 kts 268°
2026-04-30 10:27 29.05118 35.28614 35988 ft 419 kts 268°
2026-04-30 10:27 29.04882 35.21947 35945 ft 420 kts 268°
2026-04-30 10:28 29.04642 35.15296 35963 ft 419 kts 268°
2026-04-30 10:28 29.04400 35.08666 35956 ft 417 kts 268°
2026-04-30 10:29 29.04156 35.02060 35949 ft 415 kts 268°
2026-04-30 10:29 29.03910 34.95472 35959 ft 415 kts 268°
2026-04-30 10:30 29.03660 34.88868 35951 ft 417 kts 268°
2026-04-30 10:30 29.03427 34.82250 35948 ft 417 kts 268°
2026-04-30 10:31 29.03291 34.75635 35955 ft 416 kts 269°
2026-04-30 10:31 29.03505 34.69032 35958 ft 417 kts 277°
2026-04-30 10:32 29.04574 34.62512 35958 ft 419 kts 282°
2026-04-30 10:32 29.06350 34.56152 35965 ft 421 kts 286°
2026-04-30 10:33 29.08250 34.49814 35975 ft 421 kts 286°
2026-04-30 10:33 29.10131 34.43478 35981 ft 422 kts 286°
2026-04-30 10:34 29.11996 34.37112 35986 ft 423 kts 286°
2026-04-30 10:34 29.13861 34.30722 35997 ft 423 kts 286°
2026-04-30 10:35 29.15709 34.24377 35996 ft 424 kts 286°
2026-04-30 10:35 29.17568 34.17977 36006 ft 424 kts 286°
2026-04-30 10:36 29.19424 34.11579 36003 ft 423 kts 286°
2026-04-30 10:36 29.21272 34.05195 36006 ft 422 kts 286°
2026-04-30 10:37 29.23114 33.98822 36009 ft 421 kts 286°
2026-04-30 10:37 29.24949 33.92459 36016 ft 420 kts 286°
2026-04-30 10:38 29.26781 33.86104 36008 ft 420 kts 286°
2026-04-30 10:38 29.28607 33.79753 36009 ft 420 kts 286°
2026-04-30 10:39 29.30428 33.73406 36008 ft 419 kts 286°
2026-04-30 10:39 29.32247 33.67055 36022 ft 420 kts 287°
2026-04-30 10:40 29.34063 33.60698 36008 ft 420 kts 287°
2026-04-30 10:40 29.35877 33.54339 36008 ft 420 kts 286°
2026-04-30 10:41 29.37687 33.47980 36007 ft 420 kts 286°
2026-04-30 10:41 29.39494 33.41620 36013 ft 419 kts 286°
2026-04-30 10:42 29.41297 33.35258 36011 ft 420 kts 286°
2026-04-30 10:42 29.43098 33.28890 36010 ft 420 kts 286°
2026-04-30 10:43 29.44892 33.22538 35981 ft 415 kts 286°
2026-04-30 10:43 29.45773 33.19418 35764 ft 408 kts 287°
2026-04-30 10:43 29.46641 33.16337 35304 ft 404 kts 287°
2026-04-30 10:44 29.47500 33.13281 34800 ft 401 kts 287°
2026-04-30 10:44 29.48341 33.10287 34309 ft 398 kts 287°
2026-04-30 10:44 29.49186 33.07275 33768 ft 395 kts 287°
2026-04-30 10:44 29.50025 33.04285 33202 ft 392 kts 288°
2026-04-30 10:45 29.50857 33.01319 32674 ft 389 kts 288°
2026-04-30 10:45 29.51692 32.98337 32155 ft 385 kts 288°
2026-04-30 10:45 29.52508 32.95420 31652 ft 382 kts 288°
2026-04-30 10:45 29.53305 32.92567 31163 ft 379 kts 288°
2026-04-30 10:46 29.54109 32.89689 30676 ft 377 kts 288°
2026-04-30 10:46 29.54905 32.86832 30187 ft 375 kts 288°
2026-04-30 10:46 29.55698 32.83988 29639 ft 373 kts 288°
2026-04-30 10:46 29.56485 32.81160 29086 ft 371 kts 288°
2026-04-30 10:47 29.57266 32.78352 28586 ft 368 kts 288°
2026-04-30 10:47 29.58041 32.75564 28073 ft 365 kts 288°
2026-04-30 10:47 29.58810 32.72795 27581 ft 363 kts 288°
2026-04-30 10:47 29.59573 32.70043 27093 ft 360 kts 288°
2026-04-30 10:48 29.60293 32.67299 26612 ft 358 kts 286°
2026-04-30 10:48 29.60935 32.64545 26132 ft 356 kts 285°
2026-04-30 10:48 29.61552 32.61803 25669 ft 354 kts 285°
2026-04-30 10:48 29.62162 32.59073 25201 ft 352 kts 285°
2026-04-30 10:49 29.62770 32.56353 24731 ft 351 kts 285°
2026-04-30 10:49 29.71739 32.16842 19639 ft 335 kts 286°
2026-04-30 10:49 29.86608 31.54140 9298 ft 296 kts 286°
2026-04-30 10:49 29.93313 31.25543 3453 ft 285 kts 286°
2026-04-30 10:50 30.02468 30.91157 717 ft 144 kts 287°